Regional Weather Roundup
Issued by NWS

Home | Current Version | Previous Version | Text Only | Print | Product List | Glossary Off
Versions: 1 2 3 4 5 6 7 8 9 10 11 12 13 14 15 16 17 18 19 20 21 22 23 24 25 26 27 28 29 30 31 32 33 34 35 36 37 38 39 40 41 42 43 44 45 46 47 48 49 50

000
ASUS44 KMEG 221110
RWRTN
TENNESSEE HOURLY STATE WEATHER ROUNDUP
NATIONAL WEATHER SERVICE MEMPHIS TN
500 AM CST WED NOV 22 2017

TNZ002-004-019-021-049-052-054-088>092-221200-
WEST TENNESSEE

CITY           SKY/WX    TMP DP  RH WIND       PRES   REMARKS
MEMPHIS INTL   CLEAR     38  28  67 N13       30.28R WCI  30
NWS MEMPHIS      N/A     38 N/A N/A MISG        N/A
JACKSON        CLEAR     35  27  72 N12       30.27R WCI  27
DYERSBURG      CLEAR     32  24  72 N10       30.31R WCI  24
SOMERVILLE     MOCLDY    37  27  65 N14G22    30.24R WCI  29
COVINGTON      CLEAR     34  25  69 N10       30.30R WCI  26
UNION CITY     CLEAR     28  25  86 N8        30.31R WCI  20
BOLIVAR        CLOUDY    37  27  65 VRB7G14   30.24R WCI  32
PARIS          CLEAR     30  25  80 N8        30.27R WCI  23
HUNTINGDON     CLEAR     32  25  74 CALM      30.26R
LEXINGTON      CLOUDY    36  27  69 N9G18     30.24R WCI  29
SELMER         MOCLDY    37  27  65 N8G15     30.21R WCI  31
SAVANNAH       CLOUDY    36  30  80 N5        30.21R WCI  32
$$

TNZ008-025-027-028-033-062-065-066-221200-
NORTH MIDDLE TENNESSEE

CITY           SKY/WX    TMP DP  RH WIND       PRES   REMARKS
NASHVILLE      CLEAR     36  28  73 N15G22    30.22R WCI  27
PORTLAND       CLEAR     32  27  80 N8        30.23R WCI  25
CLARKSVILLE    CLEAR     31  22  69 N7        30.27R WCI  24
SMYRNA         CLEAR     37  29  72 NW9       30.22R WCI  30
COOKEVILLE     CLOUDY    37  34  87 NW5       30.14R WCI  34
GALLATIN       PTCLDY    36  30  80 NW7       30.24R WCI  30
CROSSVILLE     CLEAR     38  32  79 N8        30.11R WCI  32
$$

TNZ061-075-076-078-094-096-097-221200-
SOUTH MIDDLE TENNESSEE

CITY           SKY/WX    TMP DP  RH WIND       PRES   REMARKS
FAYETTEVILLE   CLEAR     41  36  81 N15       30.12R
TULLAHOMA      CLEAR     37  34  87 N12       30.13R WCI  30
WINCHESTER     CLEAR     37  34  87 N10       30.13R WCI  30
MCMINNVILLE    CLEAR     37  34  87 N6        30.14R WCI  33
COLUMBIA       CLOUDY    37  30  75 N7        30.18R WCI  32
SHELBYVILLE    PTCLDY    36  34  93 N12       30.16R WCI  27
$$

TNZ017-018-042-046-047-221200-
NORTHEAST TENNESSEE

CITY           SKY/WX    TMP DP  RH WIND       PRES   REMARKS
TRI CITIES     PTCLDY    44  36  73 NW5       30.06R
ELIZABETHTON   CLOUDY    45  43  93 CALM      30.05S
$$

TNZ012-013-036-069-073-074-221200-
CENTRAL EAST TENNESSEE

CITY           SKY/WX    TMP DP  RH WIND       PRES   REMARKS
KNOXVILLE      CLEAR     43  38  82 NE6       30.08S
OAK RIDGE      CLEAR     40  38  93 N3        30.11R
DOWNTOWN KNOXV FOG       39  39 100 CALM      30.10S VSB 0
GATLINBURG     PTCLDY    41  36  81 CALM      30.09S
MORRISTOWN     PTCLDY    45  32  61 NW7       30.08R
JACKSBORO      PTCLDY    45  34  65 CALM      30.14S
$$

TNZ083-085-099-221200-
SOUTHEAST TENNESSEE

CITY           SKY/WX    TMP DP  RH WIND       PRES   REMARKS
CHATTANOOGA    CLEAR     38  36  92 CALM      30.09S
DAYTON         MOSUNNY   45  36  70 N5        30.09S
$$

SKY/WX REPORTED AS FAIR MEANS FEW OR NO CLOUDS BELOW
12 THOUSAND FEET.





USA.gov is the U.S. government's official web portal to all federal, state and local government web resources and services.